GW0681 Weather Reports


Display with metric or nautical units.
time (UTC)temp
F
wind
direction
speed
MPH
gust
MPH
rain 1hr
in
rain 24hr
in
rain mn
in
humidity
%
barometer
mb
20260506102542 60 102 3.0 8.0 0.00 0.14 0.08 87 1005.3
20260506102041 60 91 3.0 8.0 0.00 0.14 0.08 86 1005.4
20260506101552 60 91 3.0 8.0 0.00 0.14 0.08 86 1005.4
20260506101041 60 76 0.0 2.0 0.00 0.14 0.08 83 1005.4
20260506100541 60 72 0.0 2.0 0.00 0.14 0.08 85 1005.3
20260506100053 59 72 0.0 3.0 0.00 0.14 0.08 84 1005.3
20260506095542 59 71 2.0 4.0 0.00 0.14 0.08 84 1005.3
20260506095042 59 68 2.0 4.0 0.00 0.14 0.08 85 1005.3
20260506094554 59 72 1.0 3.0 0.00 0.14 0.08 85 1005.4
20260506094041 59 60 0.0 2.0 0.00 0.14 0.08 85 1005.3
20260506093542 59 64 0.0 2.0 0.00 0.14 0.08 85 1005.4
20260506093055 59 68 0.0 3.0 0.00 0.14 0.08 85 1005.4
20260506092542 59 0 1.0 5.0 0.00 0.14 0.08 85 1005.5
20260506092041 59 65 1.0 6.0 0.00 0.14 0.08 88 1005.6
20260506091547 59 346 3.0 6.0 0.00 0.14 0.08 87 1005.8
20260506091042 59 15 4.0 6.0 0.00 0.14 0.08 87 1005.8
20260506090541 59 349 3.0 6.0 0.00 0.14 0.08 84 1005.6
20260506090058 59 25 1.0 7.0 0.00 0.14 0.08 86 1005.7
20260506085541 59 15 3.0 7.0 0.00 0.14 0.08 87 1005.7
20260506085042 59 309 2.0 7.0 0.00 0.14 0.08 87 1005.7
20260506084601 58 303 1.0 4.0 0.00 0.14 0.08 88 1005.9
20260506084042 58 44 2.0 4.0 0.00 0.14 0.08 88 1006.0
20260506083542 58 26 0.0 3.0 0.00 0.14 0.08 89 1005.9
20260506083051 58 35 1.0 2.0 0.00 0.14 0.08 89 1005.9
20260506082541 58 304 1.0 3.0 0.00 0.14 0.08 90 1005.8
20260506082041 58 0 1.0 3.0 0.00 0.14 0.08 90 1005.8
20260506081554 58 27 1.0 3.0 0.00 0.14 0.08 90 1005.9
20260506081041 58 324 1.0 3.0 0.00 0.14 0.08 90 1005.9
20260506080542 57 49 0.0 2.0 0.00 0.14 0.07 89 1005.9
20260506073058 57 0 0.0 0.0 0.00 0.14 0.07 90 1006.2
20260506072542 57 0 0.0 0.0 0.00 0.14 0.07 91 1006.2
20260506072042 57 0 0.0 0.0 0.00 0.14 0.07 91 1006.1
20260506071552 57 0 0.0 0.0 0.00 0.14 0.07 92 1006.0
20260506071041 57 0 0.0 0.0 0.00 0.14 0.07 92 1006.1
20260506070545 56 0 0.0 0.0 0.00 0.14 0.07 92 1006.0
20260506062042 56 0 0.0 1.0 0.00 0.13 0.07 94 1006.5
20260506061600 55 89 0.0 1.0 0.00 0.13 0.07 94 1006.5
20260506061042 55 0 0.0 1.0 0.00 0.13 0.07 94 1006.5
20260506060543 55 0 0.0 1.0 0.00 0.13 0.07 94 1006.4
20260506051045 55 63 0.0 1.0 0.00 0.13 0.07 94 1006.3
20260506050542 54 0 0.0 2.0 0.00 0.13 0.07 93 1006.1
20260506050108 54 0 0.0 2.0 0.00 0.13 0.07 93 1006.1
20260506045043 54 39 0.0 3.0 0.00 0.13 0.07 93 1006.0
20260506044552 54 30 2.0 3.0 0.00 0.13 0.07 93 1006.0
20260506044111 54 30 1.0 3.0 0.00 0.13 0.07 93 1006.2
20260506043541 54 46 1.0 3.0 0.00 0.13 0.07 93 1006.3
20260506043055 54 51 2.0 3.0 0.00 0.13 0.07 93 1006.5
20260506042543 54 56 1.0 3.0 0.00 0.13 0.07 93 1006.4
20260506042041 54 60 2.0 3.0 0.00 0.13 0.07 93 1006.4
20260506041552 54 46 2.0 3.0 0.00 0.13 0.07 93 1006.4
20260506041041 54 55 1.0 2.0 0.00 0.13 0.07 94 1006.5
20260506040541 54 63 0.0 2.0 0.00 0.13 0.07 94 1006.5
20260506040101 54 68 1.0 3.0 0.00 0.13 0.07 94 1006.5
20260506035541 54 34 2.0 5.0 0.00 0.13 0.07 94 1006.5
20260506035041 54 20 2.0 5.0 0.01 0.13 0.07 93 1006.5
20260506034551 54 338 3.0 5.0 0.01 0.13 0.07 93 1006.6
20260506034041 55 329 3.0 4.0 0.01 0.13 0.07 93 1006.6
20260506033542 55 300 3.0 4.0 0.01 0.13 0.07 93 1006.7
20260506033050 55 36 0.0 2.0 0.02 0.13 0.07 92 1006.8
20260506032543 55 0 0.0 1.0 0.02 0.13 0.07 92 1006.9
20260506032042 55 0 0.0 3.0 0.02 0.13 0.07 92 1006.8
20260506031553 55 0 1.0 5.0 0.02 0.13 0.07 92 1006.8
20260506031045 55 43 3.0 5.0 0.03 0.13 0.07 92 1006.9
20260506030541 55 65 3.0 7.0 0.04 0.13 0.07 92 1006.8
20260506030055 55 65 4.0 7.0 0.05 0.13 0.07 93 1006.7
20260506025541 55 58 5.0 7.0 0.04 0.12 0.06 93 1006.7
20260506025041 54 60 0.0 3.0 0.03 0.11 0.05 94 1006.7
20260506024557 54 0 0.0 0.0 0.03 0.11 0.05 94 1006.6
20260506024042 55 0 0.0 1.0 0.04 0.11 0.05 93 1006.6
20260506023543 55 0 0.0 2.0 0.04 0.11 0.05 94 1006.6
20260506023046 55 0 0.0 2.0 0.04 0.11 0.04 94 1006.7
20260506022541 55 41 1.0 2.0 0.04 0.11 0.04 93 1006.6
20260506022041 55 45 0.0 3.0 0.04 0.11 0.04 93 1006.7
20260506021601 55 38 1.0 3.0 0.04 0.11 0.04 93 1006.9
20260506021042 55 354 2.0 3.0 0.03 0.09 0.03 93 1007.0
20260506020542 55 333 2.0 3.0 0.02 0.08 0.02 93 1007.1
20260506020048 55 37 1.0 3.0 0.01 0.07 0.01 92 1007.2
20260506015543 55 28 1.0 3.0 0.01 0.07 0.01 92 1007.3
20260506015042 55 22 2.0 3.0 0.01 0.07 0.01 92 1007.3
20260506014551 55 356 3.0 3.0 0.01 0.07 0.01 91 1007.3
20260506014044 55 11 1.0 3.0 0.00 0.07 0.00 91 1007.3
20260506013541 55 23 2.0 4.0 0.00 0.07 0.00 90 1007.3
20260506013059 56 349 2.0 4.0 0.00 0.06 0.00 89 1007.3
20260506012542 56 337 3.0 4.0 0.00 0.06 0.00 89 1007.2
20260506012044 56 335 3.0 4.0 0.00 0.06 0.00 89 1007.2
20260506011603 56 316 3.0 4.0 0.00 0.06 0.00 88 1007.3
20260506011041 56 322 3.0 3.0 0.00 0.06 0.00 89 1007.3
20260506010541 56 20 1.0 3.0 0.00 0.06 0.00 89 1007.4
20260506010053 56 38 2.0 3.0 0.00 0.06 0.00 89 1007.3
20260506005541 56 49 2.0 3.0 0.00 0.06 0.00 89 1007.3
20260506005042 56 44 2.0 3.0 0.00 0.06 0.00 89 1007.2
20260506004550 56 49 1.0 2.0 0.00 0.06 0.00 90 1007.3
20260506004042 56 49 1.0 2.0 0.00 0.06 0.00 89 1007.2
20260506003542 56 50 2.0 3.0 0.00 0.06 0.00 89 1007.2
20260506003052 56 60 1.0 3.0 0.00 0.06 0.00 89 1007.2
20260506002541 56 58 1.0 3.0 0.00 0.06 0.00 89 1007.3
20260506002042 56 60 1.0 3.0 0.00 0.06 0.00 90 1007.3
20260506001551 56 48 1.0 3.0 0.00 0.06 0.00 90 1007.4
20260506001044 56 39 1.0 3.0 0.00 0.06 0.00 90 1007.5
20260506000542 56 45 0.0 2.0 0.00 0.06 0.00 90 1007.6
20260506000050 56 45 0.0 2.0 0.00 0.06 0.00 90 1007.6
20260505235541 56 41 0.0 2.0 0.00 0.06 0.00 90 1007.5
20260505235041 56 40 2.0 3.0 0.00 0.06 0.00 91 1007.5
20260505234546 56 41 2.0 3.0 0.00 0.06 0.00 91 1007.6
20260505234042 55 33 2.0 4.0 0.00 0.06 0.00 91 1007.6
20260505233542 55 34 2.0 4.0 0.00 0.06 0.00 91 1007.6
20260505233045 55 35 3.0 4.0 0.00 0.06 0.00 92 1007.6
20260505232542 55 37 2.0 3.0 0.00 0.06 0.00 93 1007.6
20260505232043 55 26 2.0 3.0 0.00 0.06 0.00 93 1007.6
20260505231605 55 41 0.0 2.0 0.00 0.06 0.00 93 1007.7
20260505231043 55 37 1.0 2.0 0.00 0.06 0.00 93 1007.6
20260505230542 55 24 1.0 3.0 0.00 0.06 0.00 93 1007.6
20260505230054 55 356 2.0 4.0 0.00 0.06 0.00 93 1007.6
20260505225542 55 352 2.0 4.0 0.00 0.06 0.00 93 1007.7
20260505225042 55 13 2.0 3.0 0.00 0.06 0.00 92 1007.7
20260505224549 55 18 0.0 3.0 0.00 0.06 0.00 92 1007.7
20260505224045 55 43 1.0 2.0 0.00 0.06 0.00 92 1007.6
20260505223541 55 44 0.0 1.0 0.00 0.06 0.00 92 1007.7
20260505223048 55 0 0.0 1.0 0.00 0.06 0.00 92 1007.8
20260505222541 55 0 0.0 1.0 0.00 0.06 0.00 91 1007.8
20260505222043 55 0 0.0 1.0 0.00 0.06 0.00 91 1007.9
20260505221558 55 0 0.0 1.0 0.00 0.06 0.00 91 1007.9
20260505221042 55 44 0.0 2.0 0.00 0.06 0.00 91 1007.8
20260505220541 55 0 1.0 3.0 0.00 0.06 0.00 91 1007.9
20260505220053 55 0 0.0 3.0 0.00 0.06 0.00 91 1007.9
20260505215543 56 359 2.0 3.0 0.00 0.06 0.06 91 1008.0
20260505215041 56 43 0.0 2.0 0.00 0.06 0.06 90 1008.0
20260505214612 56 47 0.0 1.0 0.00 0.06 0.06 89 1008.0
20260505214040 57 67 0.0 1.0 0.00 0.06 0.06 87 1008.0
20260505213543 57 0 0.0 5.0 0.00 0.06 0.06 86 1008.0
20260505213057 57 0 1.0 6.0 0.00 0.06 0.06 86 1008.1
20260505212541 57 61 4.0 6.0 0.00 0.06 0.06 86 1008.1
20260505212043 57 83 3.0 6.0 0.00 0.06 0.06 87 1008.2
20260505211603 57 89 4.0 6.0 0.00 0.06 0.06 86 1008.2
20260505211042 56 76 5.0 6.0 0.00 0.06 0.06 87 1008.3
20260505210541 56 87 4.0 6.0 0.00 0.06 0.06 89 1008.2
20260505210046 56 75 2.0 4.0 0.00 0.06 0.06 90 1008.3
20260505205541 56 0 0.0 4.0 0.00 0.06 0.06 90 1008.3
20260505205042 56 75 3.0 4.0 0.00 0.06 0.06 90 1008.3
20260505204549 56 67 2.0 4.0 0.00 0.06 0.06 91 1008.3
20260505204041 56 58 2.0 3.0 0.01 0.06 0.06 92 1008.3
20260505203542 55 51 1.0 2.0 0.02 0.06 0.06 92 1008.3
20260505203054 55 0 0.0 2.0 0.03 0.06 0.06 92 1008.2
20260505202541 55 0 0.0 2.0 0.03 0.06 0.06 92 1008.3
20260505202042 55 49 1.0 2.0 0.03 0.06 0.06 92 1008.5
20260505201557 56 46 1.0 2.0 0.03 0.06 0.06 92 1008.3
20260505201042 56 0 0.0 2.0 0.03 0.06 0.06 91 1008.4
20260505200542 56 0 1.0 2.0 0.03 0.06 0.06 91 1008.4
20260505200058 56 0 0.0 2.0 0.03 0.06 0.06 90 1008.3
20260505195541 56 32 0.0 2.0 0.03 0.06 0.06 90 1008.3
20260505195041 56 32 0.0 3.0 0.03 0.06 0.06 89 1008.3
20260505194555 56 32 1.0 4.0 0.02 0.05 0.05 89 1008.4
20260505194041 56 30 2.0 5.0 0.01 0.04 0.04 88 1008.2
20260505193540 57 360 3.0 6.0 0.00 0.03 0.03 87 1008.2
20260505193046 57 323 4.0 7.0 0.00 0.03 0.03 85 1008.2
20260505192541 58 336 4.0 7.0 0.00 0.03 0.03 83 1008.1
20260505192041 58 18 3.0 7.0 0.00 0.03 0.03 82 1008.0
20260505191550 58 53 0.0 2.0 0.00 0.03 0.03 82 1007.9
20260505191041 58 0 0.0 1.0 0.00 0.03 0.03 82 1007.7
20260505190541 58 55 0.0 1.0 0.00 0.03 0.03 82 1007.7
20260505190051 58 0 0.0 1.0 0.00 0.03 0.03 81 1007.6
20260505185541 58 0 0.0 3.0 0.00 0.03 0.03 81 1007.6
20260505185042 58 55 1.0 3.0 0.00 0.03 0.03 80 1007.5
20260505184550 58 48 0.0 2.0 0.00 0.03 0.03 81 1007.5
20260505184042 58 15 1.0 3.0 0.00 0.03 0.03 82 1007.4
20260505183541 59 15 1.0 3.0 0.00 0.03 0.03 81 1007.4
20260505183103 59 63 0.0 2.0 0.00 0.03 0.03 79 1007.3
20260505182541 60 0 0.0 3.0 0.00 0.03 0.03 78 1007.4
20260505182041 60 75 1.0 3.0 0.00 0.03 0.03 76 1007.3
20260505181550 60 72 1.0 3.0 0.00 0.03 0.03 76 1007.4
20260505181041 60 72 0.0 3.0 0.00 0.03 0.03 76 1007.5
20260505180541 60 75 1.0 3.0 0.00 0.03 0.03 75 1007.4
20260505180053 60 70 1.0 4.0 0.00 0.03 0.03 76 1007.3
20260505175541 60 75 1.0 4.0 0.00 0.03 0.03 76 1007.3
20260505175042 60 78 3.0 4.0 0.00 0.03 0.03 76 1007.3
20260505174557 60 72 1.0 3.0 0.00 0.03 0.03 77 1007.3
20260505174042 60 68 1.0 3.0 0.00 0.03 0.03 77 1007.3
20260505173541 60 68 1.0 3.0 0.00 0.03 0.03 76 1007.3
20260505173050 60 63 1.0 3.0 0.00 0.03 0.03 76 1007.4
20260505172543 60 65 0.0 2.0 0.00 0.03 0.03 77 1007.4
20260505172043 60 64 1.0 2.0 0.00 0.03 0.03 75 1007.4
20260505171550 60 62 0.0 2.0 0.00 0.03 0.03 78 1007.4
20260505171043 60 0 0.0 3.0 0.00 0.03 0.03 77 1007.5
20260505170541 60 67 0.0 3.0 0.00 0.03 0.03 75 1007.4
20260505170045 60 75 1.0 2.0 0.00 0.03 0.03 75 1007.4
20260505165541 60 68 1.0 3.0 0.00 0.03 0.03 76 1007.4
20260505165041 60 67 1.0 4.0 0.00 0.03 0.03 77 1007.4
20260505164551 60 88 1.0 7.0 0.00 0.03 0.03 77 1007.5
20260505164041 60 72 2.0 7.0 0.00 0.03 0.03 76 1007.5
20260505163541 60 84 4.0 7.0 0.00 0.03 0.03 75 1007.5
20260505163051 60 66 4.0 7.0 0.00 0.03 0.03 76 1007.6
20260505162542 60 71 4.0 8.0 0.00 0.03 0.03 76 1007.4
20260505162042 60 62 5.0 8.0 0.00 0.03 0.03 76 1007.5
20260505161604 60 71 5.0 6.0 0.00 0.03 0.03 77 1007.6
20260505161042 60 49 2.0 4.0 0.00 0.03 0.03 77 1007.6
20260505160542 60 51 2.0 4.0 0.00 0.03 0.03 77 1007.7
20260505153101 61 320 3.0 4.0 0.00 0.03 0.03 76 1007.8
20260505152542 61 23 2.0 4.0 0.00 0.03 0.03 75 1007.7
20260505152041 61 2 2.0 5.0 0.00 0.03 0.03 76 1007.8
20260505151604 61 346 2.0 6.0 0.00 0.03 0.03 76 1007.8
20260505151041 61 257 4.0 7.0 0.00 0.03 0.03 74 1007.7
20260505150541 61 244 5.0 7.0 0.00 0.03 0.03 76 1007.7
20260505140541 61 276 3.0 5.0 0.00 0.03 0.03 77 1007.9
20260505140111 61 309 2.0 6.0 0.00 0.03 0.03 77 1008.0
20260505124557 59 285 2.0 7.0 0.01 0.03 0.03 84 1008.7
20260505124042 59 260 3.0 9.0 0.01 0.03 0.03 84 1008.8
20260505123541 58 282 4.0 9.0 0.02 0.03 0.03 84 1008.9
20260505123054 58 273 5.0 8.0 0.02 0.03 0.03 85 1008.9
20260505122543 58 305 4.0 8.0 0.02 0.03 0.03 86 1009.0
20260505122041 58 288 5.0 8.0 0.02 0.03 0.03 86 1009.0
20260505121549 58 248 5.0 10.0 0.02 0.03 0.03 87 1009.1
20260505121042 58 257 7.0 10.0 0.03 0.03 0.03 87 1009.1
20260505120542 58 281 5.0 7.0 0.02 0.02 0.02 88 1009.0
20260505120055 58 321 4.0 8.0 0.02 0.02 0.02 85 1009.1
20260505115541 58 296 3.0 12.0 0.01 0.01 0.01 86 1009.1
20260505115055 58 336 6.0 12.0 0.01 0.01 0.01 85 1009.0
20260505114557 58 261 6.0 12.0 0.01 0.01 0.01 85 1009.0
20260505114042 58 342 5.0 8.0 0.01 0.01 0.01 85 1009.0
20260505113544 58 328 5.0 8.0 0.00 0.00 0.00 84 1009.0
20260505113100 59 317 6.0 8.0 0.00 0.00 0.00 83 1008.9
20260505112541 59 311 3.0 8.0 0.00 0.00 0.00 81 1008.9
20260505112042 59 330 5.0 8.0 0.00 0.00 0.00 79 1008.8
20260505111546 59 329 4.0 8.0 0.00 0.00 0.00 79 1008.7
20260505111042 60 340 3.0 8.0 0.00 0.00 0.00 78 1008.8
20260505110542 60 69 5.0 10.0 0.00 0.00 0.00 78 1008.8